www.pogodaiklimat.ru

Погода и климат >> Архив погоды >> Россия >> Якутия >> Тонгулах


ПОГОДА в Тонгулахе

  • Прогноз погоды в Тонгулахе
  • Монитор погоды в Тонгулахе
  • Климат города

АРХИВ ПОГОДЫ в Тонгулахе

Время (UTC), дата Ветер
(напр.,м/с)
 
Видим.   Явления Облачность Т
(С)
Тd
(С)
f
(%)
Тe
(С)
Тes
(С)
Комфортность P
(гПа)
Po
(гПа)
Тmin
(С)
Tmax
(С)
R
(мм)
R24
(мм)
S
(см)
09 17.05 З 3 20 км {дождь} 10/8 300 м
[St As op]
+4.6 +3.6 93 +1 +1 991.8 967.8
12 17.05 З 1 50 км {дождь} 8/0 600 м
[Ac As]
+1.0 -5.7 61 -0 -0 995.4 971.2 +7.7 8
15 17.05 СЗ 3 20 км 10/0
[Ac As Cs]
0.0 -1.4 90 -5 -5 997.4 972.9
18 17.05 СЗ 3 20 км 10/0
[Ac As Cs]
-0.6 -2.1 90 -5 -5 998.5 973.9
21 17.05 СЗ 2 50 км 8/0
[Ac trans]
+0.2 -1.5 88 -3 -3 1001.1 976.6
00 18.05 СЗ 2 50 км 8/0
[Ac trans]
+2.6 -3.5 64 -0 +4 1002.5 978.1 -0.7
03 18.05 СЗ 2 50 км 8/0
[Ac trans]
+2.6 -3.5 64 -0 +6 1002.5 978.1 -0.7
06 18.05 СЗ 2 50 км 10/0
[Ac As]
+5.4 -2.7 56 +3 +6 1002.4 978.3
09 18.05 СЗ 2 50 км {дождь} 10/0
[Ac As]
+3.8 -1.8 67 +1 +2 1004.8 981.2
12 18.05 штиль 0 50 км 10/0
[Ac As]
+3.0 -2.8 66 +2 +2 1007.6 983.2 +6.5 2
15 18.05 штиль 0 20 км 3/0
[Ac trans]
-1.8 -2.3 96 -3 -3 1008.4 983.5
18 18.05 штиль 0 20 км ясно -2.2 -3.1 94 -3 -3 1009.0 984.0
21 18.05 СЗ 3 50 км ясно -0.2 -2.3 86 -5 -4 1010.2 985.4
00 19.05 СЗ 4 50 км 3/3 1000 м
[Cu hum]
+2.6 -7.2 48 -2 +2 1010.1 985.6 -2.4
03 19.05 СЗ 5 50 км 10/10 600 м
[St]
+2.8 -8.3 44 -2 -2 1010.6 986.1
06 19.05 СЗ 5 50 км 8/8 600 м
[Cu med, cong]
+3.3 -8.4 42 -1 0 1011.2 986.8
09 19.05 СЗ 4 50 км 9/8 600 м
[Cu med, cong Ci fib]
+4.5 -10.3 33 +1 +2 1011.7 987.3
12 19.05 С 2 50 км ясно +1.5 -10.0 42 -1 -1 1013.7 989.0 +5.0
15 19.05 штиль 0 20 км ясно -4.6 -12.2 55 -5 -5 1015.6 990.3
18 19.05 штиль 0 20 км ясно -5.4 -12.4 58 -6 -6 1016.5 991.1
21 19.05 З 4 50 км 3/0
[Ac trans]
-3.4 -9.9 61 -9 -8 1015.2 990.0
00 20.05 СЗ 4 50 км 4/4 1000 м
[Cu hum]
+0.7 -7.6 54 -4 -1 1014.4 989.6 -5.6
03 20.05 С 5 50 км 10/10 600 м
[Cb cap]
+1.2 -7.6 52 -4 -4 1013.9 989.2
06 20.05 З 4 50 км {ливн. осадки} 10/4 600 м
[Cu med, cong Cs]
+2.2 -4.5 61 -2 +1 1013.7 989.0
09 20.05 З 5 50 км {ливн. осадки} 9/6 600 м
[Cb cap Ci fib]
+1.1 -3.7 70 -4 -8 1013.9 989.2
12 20.05 50 км {ливн. осадки} н/о -0.7 -2.5 88 -3 -3 1014.5 989.6 +3.0 0.8
15 20.05 СЗ 1 10 км слабый снег 10/0
[As op]
-1.7 -2.8 92 -4 -4 1014.8 989.8
18 20.05 штиль 0 10 км слабый снег 10/0
[As op]
-2.4 -3.0 96 -4 -4 1014.9 989.8
21 20.05 штиль 0 50 км {снег} 10/0
[Ac As]
+0.2 -3.5 76 -1 -0 1013.9 989.1
00 21.05 50 км {снег} н/о +4.0 -5.1 51 +3 +7 1012.9 988.3 -2.6 0.5
03 21.05 С 1 50 км 8/8 600 м
[Sc]
+5.6 -5.5 45 +5 +8 1011.7 987.4
06 21.05 СЗ 3 50 км 8/8 600 м
[Sc]
+9.9 -5.3 34 +8 +10 1009.8 985.9
09 21.05 С 1 50 км 4/0
[Ac trans]
+9.9 -6.7 30 +10 +13 1008.9 985.0
12 21.05 штиль 0 50 км ясно +6.4 -8.7 33 +6 +6 1009.0 984.8 +10.6
15 21.05 штиль 0 20 км ясно +1.6 -6.6 54 +1 +1 1009.1 984.5
18 21.05 штиль 0 20 км ясно +1.0 -5.8 60 0 0 1009.2 984.5
21 21.05 штиль 0 50 км 10/0
[As trans]
+0.2 -5.3 66 -1 0 1005.7 981.1
00 22.05 штиль 0 50 км {ливн. осадки} 10/0
[As op]
+1.4 -2.4 76 +1 +2 1004.4 979.9 -0.2 0.0
03 22.05 штиль 0 50 км слабый дождь 10/0
[As op]
+1.6 +0.8 94 0 +4 1004.8 980.3
06 22.05 штиль 0 50 км {дождь} 10/0
[As op]
+6.6 +4.0 83 +6 +9 1005.0 980.9
09 22.05 штиль 0 50 км 10/0
[As op]
+6.8 +3.5 79 +6 +7 1005.8 981.8
12 22.05 штиль 0 50 км 10/0
[As op]
+6.2 +2.0 74 +5 +5 1006.7 982.6 +7.0 2
15 22.05 штиль 0 20 км 10/0
[As op]
+4.0 +1.4 83 +3 +3 1006.8 982.6
18 22.05 штиль 0 20 км 10/0
[As op]
+2.6 +0.2 84 +2 +2 1007.5 983.0
21 22.05 СЗ 2 50 км {дождь} 10/0
[As op]
+2.0 +1.7 98 -2 -1 1006.8 982.4
00 23.05 СЗ 3 50 км {дождь} 10/0
[As op]
+3.0 +2.5 97 -1 0 1007.5 983.1 +1.7 1
03 23.05 СЗ 4 50 км 10/10 600 м
[St]
+4.0 +1.4 83 -0 -0 1008.5 984.1
06 23.05 СЗ 3 50 км 10/10 600 м
[St]
+5.6 +0.7 71 +3 +3 1010.0 985.7
09 23.05 СЗ 3 50 км 8/6 1000 м
[Cu med, cong Ac trans]
+7.1 -0.1 60 +5 +5 1010.2 986.1
12 23.05 СЗ 1 50 км 4/3 1000 м
[Sc]
+6.7 -0.4 60 +6 +6 1011.0 986.8 +7.2
15 23.05 штиль 0 20 км 3/0
[Ac trans]
-2.3 -3.9 89 -3 -3 1011.4 986.4
18 23.05 штиль 0 50 км 3/0
[Ac trans]
-3.4 -4.7 91 -5 -5 1011.1 986.0
21 23.05 В 1 50 км 10/0
[Cs]
-3.0 -1.5 100 -6 -4 1008.5 983.7
00 24.05 Ю 4 50 км 10/0
[Cs]
+7.2 -3.0 48 +4 +8 1003.9 979.9 -3.7
03 24.05 ЮВ 5 50 км 10/0
[Cs]
+10.2 -2.7 40 +8 +13 998.2 974.6

 

Местоположение метеостанции Тонгулах (Якутия, Россия): широта 61.92 долгота 124.50 высота над уровнем моря 199 м.

В архиве по умолчанию представлена погода в Тонгулахе за последнюю неделю. Архивные данные за месяц целиком и за предыдущие месяцы, начиная с января 2011 года, Вы можете получить, выбрав интересующий диапазон дат из раскрывающегося списка и нажав кнопку "Ввод!".

Внимание! Время в таблицах - всемирное. Для получения местного времени необходимо прибавить поправку, которая в Тонгулахе равна 9 ч.

Смотрите также архив погоды в соседних городах и на ближайших метеорологических станциях:

Погода в Исите (Якутия, Россия) (130 км)
Погода в Бердигестяхе (Якутия, Россия) (136 км)
Погода в Хатырык-Хомо (Якутия, Россия) (226 км)
Погода в Покровске (Якутия, Россия) (247 км)
Погода в Вилюйске (Якутия, Россия) (253 км)
Погода в Якутске (Якутия, Россия) (267 км)
Погода в Сангаре (Якутия, Россия) (269 км)
Погода в Олекминске (Якутия, Россия) (277 км)
Погода в Верхневилюйске (Якутия, Россия) (278 км)
Погода в Намцах (Якутия, Россия) (278 км)

Пояснения к столбцам:

Ветер - указаны скорость ветра в м/с - средняя за 10 мин, порывы в срок и между сроками (в фигурных скобках) и направление, откуда дует ветер: С - северный, СВ - северо-восточный, В - восточный, ЮВ - юго-восточный, Ю - южный, ЮЗ - юго-западный, З - западный, СЗ - северо-западный.
Видимость - горизонтальная дальность видимости в метрах или километрах. При видимости от 1 до 10 км при отсутствии осадков обычно наблюдается дымка, при ухудшении видимости до 1 км и менее - туман. В сухую погоду видимость может ухудшаться дымом, пылью или мглою.
Явления - указаны атмосферные явления, наблюдавшиеся в срок или в последний час перед сроком; фигурными скобками обозначены явления, наблюдавшиеся между сроками (за 1-3 часа до срока); квадратными скобками обозначены град или гололедные отложения с указанием их диаметра в мм.
Облачность - указаны через наклонную черту общая и нижняя облачность в баллах и высота нижней границы облаков в метрах; квадратными скобками обозначены формы облаков: Ci - перистые, Cs - перисто-слоистые, Cc - перисто-кучевые, Ac - высококучевые, As - высокослоистые, Sc - слоисто-кучевые, Ns - слоисто-дождевые, Cu - кучевые, Cb - кучево-дождевые. Подробнее классификацию облаков см. в Атласе облаков (PDF).
T - Температура воздуха - температура, измеренная на высоте 2 м над землей.
Td - Температура точки росы - температура, при понижении до которой содержащийся в воздухе водяной пар достигнет насыщения.
f - Относительная влажность воздуха - влажноcть воздуха, измеренная на высоте 2 м над землей.
Te - Эффективная температура - температура, которую ощущает одетый по сезону человек в тени. Характеристика душности погоды. При расчете учитывается влияние влажности воздуха и скорости ветра на теплоощущения человека.
Tes - Эффективная температура на солнце - температура, которую ощущает человек, с поправкой на солнечный нагрев. Характеристика знойности погоды. Зависит от высоты солнца над горизонтом, облачности и скорости ветра. Ночью, в пасмурную погоду, а также при ветре 12 м/с и более поправка равна нулю.
P - Атмосферное давление - приведенное к уровню моря атмосферное давление.
Po - Атмосферное давление - измеренное на уровне метеостанции атмосферное давление.
Tmin - Минимальная температура - минимум температуры воздуха на высоте 2 м над землей.
Tmax - Максимальная температура - максимум температуры воздуха на высоте 2 м над землей.
R - Количество осадков - Количество выпавших осадков за период времени, мм. При наведении курсора мыши на число - период времени, за который выпало указанное количество осадков.
R24 - Количество осадков - Количество выпавших осадков за 24 часа, мм.
S - Снежный покров - Высота снежного покрова, см. При наведении курсора мыши на число - состояние снежного покрова и степень покрытия местности в баллах.